Regional Weather Roundup
Issued by NWS Lake Charles, LA

Home | Current Version | Previous Version | Text Only | Print | Product List | Glossary On
Versions: 1 2 3 4 5 6 7 8 9 10 11 12 13 14 15 16 17 18 19 20 21 22 23 24 25 26 27 28 29 30 31 32 33 34 35 36 37 38 39 40 41 42 43 44 45 46 47 48 49 50
521
ASUS44 KLCH 141710
RWRLCH
REGIONAL WEATHER ROUNDUP
NATIONAL WEATHER SERVICE LAKE CHARLES LA
1100 AM CST SUN FEB 14 2016

Note: "fair" indicates few or no clouds below 12,000 feet with no
significant weather and/or obstructions to visibility.


ACROSS SOUTHEAST TEXAS

CITY           SKY/WX    TMP DP  RH WIND       PRES   REMARKS
BEAUMONT       CLOUDY    70  60  70 SE13      30.09F
BEAUMONT CITY  CLOUDY    71  59  65 S12G18    30.08F
ORANGE         PTSUNNY   67  56  67 S14G21    30.11S
JASPER           N/A     62  56  80 S6        30.09F
$$

ACROSS CENTRAL LOUISIANA

CITY           SKY/WX    TMP DP  RH WIND       PRES   REMARKS
LEESVILLE      CLOUDY    59  51  73 S12       30.10F
FULLERTON      PTSUNNY   61  50  67 VRB6      30.08F
ALEXANDRIA INT CLOUDY    59  47  64 SE15      30.11F
ESLER FIELD    MOSUNNY   63  45  51 SE14      30.13F
DERIDDER         N/A     61  52  71 SE7       30.12F
OAKDALE          N/A     63  52  68 SE10G17   30.13F
OPELOUSAS      FAIR      63  50  64 SE14      30.13F
$$

ACROSS SOUTHWEST AND SOUTH CENTRAL LOUISIANA

CITY           SKY/WX    TMP DP  RH WIND       PRES   REMARKS
SULPHUR        PTSUNNY   68  57  67 MISG      30.11S
LAKE CHARLES   CLOUDY    69  56  62 S26G32    30.09F
CHENNAULT INT  NOT AVBL
CAMERON PHI    NOT AVBL
DEQUINCY       CLOUDY    64  57  76 SE9G18    30.10F
JENNINGS       PTSUNNY   64  54  68 SE16G22   30.12S
LAFAYETTE      CLOUDY    64  51  62 SE9G21    30.14F
NEW IBERIA     PTSUNNY   66  52  60 SE18G30   30.13F
ABBEVILLE      FAIR      62  53  71 SE18G26   30.14F
PATTERSON      SUNNY     64  52  63 SE18G24   30.14F
SALT POINT       N/A     63  53  70 SE14G21   30.14F
$$

SELECTED SITES ACROSS THE REGION

CITY           SKY/WX    TMP DP  RH WIND       PRES   REMARKS
HOUSTON BUSH   PTSUNNY   70  53  54 S10G22    30.05F
HOUSTON HOBBY  PTSUNNY   73  52  47 S16G25    30.04F
GALVESTON      MOSUNNY   67  61  81 S12       30.08F
COLLEGE STAT   LGT RAIN  69  55  60 S16G29    30.00F
CONROE         PTSUNNY   70  53  54 S15G22    30.04F
HUNTSVILLE     PTSUNNY   68  56  65 S14G21    30.02F
LUFKIN         CLOUDY    66  56  70 S15G22    30.04S
SHREVEPORT     CLOUDY    55  46  71 S13       30.07F
MONROE         PTSUNNY   57  37  47 S10       30.13F
NATCHEZ MS     CLOUDY    57  39  51 SE13      30.16F
BATON ROUGE    CLOUDY    63  45  51 SE15G23   30.17F
N.O. INTL ARPT PTSUNNY   66  46  48 SE17G23   30.21F
SLIDELL        CLOUDY    63  49  60 SE17      30.22F
$$

MARINE REPORTS

STATION/POSITION TIME  SKY/WX   TEMP    WIND        PRES    VSBY
                                AIR SEA DIR/SP/G
                 (UTC)          (F)     (DEG/KT/KT) (MB)    (MI)
BUOY 30 S HIGH I 1650            62 60  160/ 10/ 10 1018.6F
WVE H/P(F/S)=  3/ 6

SEA RIM ST PARK  1700            63     150/ 10/ 13 1019.2F
PORT ARTHUR      1600               58  140/  9/ 14 1019.4F
SABINE PASS N    1600            61 59  150/ 12/ 16 1020.7F
TEXAS POINT      NOT AVBL
CALCASIEU PASS   1600            60 59  150/ 17/ 21 1018.8S
LK CHARLES BEACH 1600            63 58              1019.7F
MARSH ISLAND     NOT AVBL
FRESH WATER LOCK 1600            61 61  120/ 15/ 22 1020.9F
AMERADA PASS     1600            61 51  120/  8/ 13 1022.1F
$$




USA.gov is the U.S. government's official web portal to all federal, state and local government web resources and services.